Home   Weather   Shenzhen   Past weeks

Flag for China Past Weather in Shenzhen, Guangdong, China — Yesterday and Last 2 Weeks

Now
68 °F

Partly sunny.


Feels Like: 68 °F
Forecast: 61 / 74 °F
Wind: 3 mph from Northeast

Location: Shenzhen Airport

Current Time: Jan 18, 2017 at 12:25:06 pm

Latest Report: Jan 18, 2017 at 11:00 am


Visibility: 4 mi

Pressure: 30.21 "Hg

Humidity: 69%

Dew Point: 57 °F

Location of ShenzhenLocation

Past Weather in Shenzhen — Graph

°F

Shenzhen Temperature Yesterday

Maximum temperature yesterday: 68 °F (at 12:00 pm)
Minimum temperature yesterday: 57 °F (at 1:00 am)
Average temperature yesterday: 62 °F

High & Low Weather Summary for the Past Weeks

 TemperatureHumidityPressure
High81 °F (Jan 8, 1:00 pm)100% (Jan 6, 4:00 am)30.21 "Hg (Jan 6, 4:00 am)
Low54 °F (Jan 13, 4:00 am)47% (Jan 9, 2:00 pm)29.86 "Hg (Jan 7, 3:00 pm)
Average65 °F78%30.05 "Hg
* Reported Jan 3 11:00 am — Jan 18 11:00 am, Shenzhen, Weather by CustomWeather, © 2017

Note: Actual official high and low records may vary slightly from our data, if they occured in-between our weather recording intervals... More about our weather records

Advertising

Shenzhen Weather History for the Previous 24 Hours

Scroll right to see more
 ConditionsComfort  
Time TempWeatherWind HumidityBarometerVisibility
11:00 am
Wed, Jan 18
68 °FPartly sunny.3 mph69%30.21 "Hg4 mi
10:00 am66 °FPartly sunny.6 mph73%30.21 "Hg4 mi
9:00 am64 °FPartly sunny.3 mph78%30.21 "Hg4 mi
8:00 am63 °FPartly sunny.6 mph83%30.18 "Hg4 mi
7:00 am63 °FPassing clouds.3 mph83%30.15 "Hg4 mi
6:00 am63 °FPassing clouds.6 mph83%30.15 "Hg4 mi
5:00 am63 °FPassing clouds.3 mph83%30.15 "Hg4 mi
4:00 am63 °FPassing clouds.6 mph83%30.15 "Hg4 mi
3:00 am63 °FPassing clouds.8 mph83%30.15 "Hg4 mi
2:00 am64 °FFog.1 mph78%30.15 "Hg3 mi
1:00 am63 °FPassing clouds.No wind77%30.18 "Hg4 mi
12:00 am63 °FFog.3 mph77%30.18 "Hg3 mi
11:00 pm
Tue, Jan 17
61 °FPassing clouds.6 mph83%30.21 "Hg5 mi
10:00 pm61 °FPassing clouds.6 mph83%30.21 "Hg5 mi
9:00 pm63 °FPassing clouds.10 mph77%30.18 "Hg4 mi
8:00 pm63 °FPassing clouds.10 mph83%30.15 "Hg4 mi
7:00 pm64 °FFog.8 mph78%30.15 "Hg3 mi
6:00 pm64 °FFog.8 mph78%30.12 "Hg3 mi
5:00 pm64 °FPartly sunny.10 mph78%30.09 "Hg3 mi
4:00 pm66 °FPartly sunny.8 mph73%30.09 "Hg3 mi
3:00 pm66 °FPartly sunny.10 mph73%30.09 "Hg4 mi
2:00 pm66 °FPartly sunny.6 mph73%30.09 "Hg4 mi
1:00 pm66 °FPartly sunny.3 mph68%30.12 "HgN/A
12:00 pm68 °FPassing clouds.6 mph60%30.15 "HgN/A
Weather by CustomWeather, © 2017

See weather overviewHow to use our weather pages